{"data":{"norad_id":64801,"intl_designator":"2025-150M","name":"STARLINK-34604","alt_names":[],"object_type":"PAYLOAD","status":"ACTIVE","operator":null,"country":"US","launch_date":"2025-07-16","launch_site_code":"AFWTR","launch_vehicle":null,"mission":null,"orbit_class":"UNKNOWN","rcs_meters":null,"size_class":null,"mass_kg":null,"dimensions":null,"purposes":["comms"],"wikipedia_slug":null,"has_3d_model":false,"image_url":null,"decayed_at":null,"tle_current":{"epoch":"2026-09-20T13:01:32.049120Z","epoch_age_seconds":123902,"freshness":"FRESH","line1":"1 64801U 25150M   26263.54273205  .00001802  00000+0  15878-3 0  9991","line2":"2 64801  70.0027   3.1728 0003343 269.9529  90.1247 14.98334240 65702","mean_motion":14.9833424,"eccentricity":0.0003343,"inclination_deg":70.0027,"raan_deg":3.1728,"arg_perigee_deg":269.9529,"mean_anomaly_deg":90.1247,"bstar":0.00015878,"rev_number":6570,"period_min":96.106727161224,"perigee_km":569.71933402493,"apogee_km":574.36622422526,"semimajor_km":6950.1797791251,"source":"CELESTRAK","updated_at":"2026-09-21T09:00:35.444657Z"}}}